[[{"header":{"parameterUnit":"m.s-1","parameterCategory":1,"la1":30.2991,"la2":30.254,"lo1":-89.0895,"lo2":-89.0444,"dy":0.0017,"dx":0.0017,"nx":28,"ny":28,"refTime":"2025-04-17T09:00:00:Z","depth":0,"parameterNumber":2,"parameterNumberName":"U-component_of_WINDS"},"data":[0,0,0,0,0,0,0,0,0,0,0,0,0,0,0,0,0,0,0,0,0,0,0,0,0,0,0,0,0,0,0,0,0,0,0,0,0,0,0,0,0,0,0,0,0,0,0,0,0,0,0,0,0,0,0,0,0,0,-3.7207,-3.7209,0,-3.7378,-3.738,-3.7382,-3.7398,-3.7396,-3.7394,-3.7393,-3.7564,-3.757,-3.7576,0,0,0,0,0,0,0,0,0,0,0,0,0,-3.6895,-3.69,-3.7207,-3.7209,-3.7212,-3.7377,-3.738,-3.7382,-3.7398,-3.7396,-3.7394,-3.7392,-3.7562,-3.7569,-3.7577,0,0,0,0,0,0,0,0,0,0,0,0,0,-3.7044,-3.6902,-3.7207,-3.724,-3.7244,-3.7377,-3.738,-3.7383,-3.7399,-3.7396,-3.7393,-3.7391,-3.756,-3.7569,-3.7578,-3.7689,0,0,-3.7606,-3.761,0,0,0,0,0,0,0,0,-3.7036,-3.7056,-3.7233,-3.7238,-3.7243,-3.7364,-3.7332,-3.7485,-3.7399,-3.734,-3.7393,-3.7389,-3.7499,-3.7513,-3.7551,-3.7697,-3.7704,-3.7607,-3.7613,-3.7617,-3.7619,0,0,0,0,0,0,0,-3.7025,-3.7048,-3.7275,-3.7235,-3.7242,-3.7245,-3.7264,-3.7361,-3.7432,-3.7345,-3.7346,-3.7367,-3.7502,-3.7542,-3.7555,-3.7706,-3.7607,-3.7615,-3.7621,-3.7625,-3.7952,-3.7955,0,0,0,0,0,0,-3.7009,-3.704,-3.7269,-3.728,-3.7131,-3.7253,-3.7274,-3.7328,-3.7431,-3.7445,-3.7369,-3.7367,-3.7528,-3.7544,-3.7561,-3.7698,-3.7617,-3.7625,-3.7631,-3.7949,-3.7953,-3.7956,0,0,0,0,0,0,-3.7002,-3.7029,-3.7262,-3.716,-3.719,-3.7261,-3.7322,-3.7332,-3.7373,-3.7449,-3.7462,-3.7397,-3.7526,-3.7548,-3.7657,-3.7704,-3.763,-3.7638,-3.7945,-3.795,-3.7954,-3.7971,0,0,0,0,0,0,-3.6993,-3.7027,-3.707,-3.7161,-3.7196,-3.7356,-3.7325,-3.7338,-3.7389,-3.7388,-3.7479,-3.7492,-3.7526,-3.7643,-3.7666,-3.7715,-3.7645,-3.7941,-3.7947,-3.7953,-3.7967,-3.7976,-3.7984,0,0,0,0,0,-3.6982,-3.7067,-3.7072,-3.7099,-3.7251,-3.7358,-3.7378,-3.7416,-3.7393,-3.7437,-3.7486,-3.7489,-3.7696,-3.7654,-3.7681,-3.7733,-3.7938,-3.7946,-3.7952,-3.7963,-3.7974,-3.7984,0,0,0,0,0,0,-3.6978,-3.708,-3.7086,-3.7203,-3.7272,-3.7361,-3.7417,-3.7427,-3.7503,-3.7498,-3.7542,-3.7562,-3.7669,-3.7712,-3.7665,-3.7846,-3.7815,-3.7827,-3.7814,-3.7825,-3.7833,-3.782,-3.7653,0,0,0,0,0,-3.6991,-3.7071,-3.7155,-3.725,-3.7285,-3.7345,-3.7393,-3.7417,-3.7489,-3.7518,-3.7576,-3.7645,-3.7726,-3.7778,-3.7857,-3.7974,-3.7994,-3.8023,-3.8032,-3.8038,-3.8048,-3.8113,-3.8127,-3.7979,-3.7979,-3.7979,0,0,-3.7018,-3.7084,-3.7131,-3.7251,-3.7307,-3.7388,-3.7369,-3.7455,-3.7515,-3.7531,-3.7637,-3.7682,-3.7763,-3.7877,-3.793,-3.7916,-3.8094,-3.8047,-3.8052,-3.8058,-3.8122,-3.8136,-3.8148,-3.7984,-3.7983,-3.7982,0,0,-3.7109,-3.7167,-3.7252,-3.731,-3.7396,-3.7436,-3.7456,-3.7544,-3.7575,-3.7683,-3.7696,-3.7769,-3.7907,-3.7964,-3.8011,-3.8125,-3.8131,-3.815,-3.8193,-3.8256,-3.8268,-3.8278,-3.8319,-3.8332,-3.816,-3.816,-3.816,0,-3.7131,-3.7254,-3.7295,-3.7381,-3.7434,-3.7454,-3.7541,-3.7594,-3.7701,-3.7736,-3.772,-3.7894,-3.795,-3.8077,-3.8105,-3.8143,-3.8168,-3.8139,-3.8263,-3.8274,-3.8285,-3.8323,-3.8338,-3.8161,-3.8161,-3.8161,-3.8161,0,-3.7277,-3.7362,-3.7421,-3.7525,-3.7585,-3.7671,-3.7724,-3.778,-3.7799,-3.784,-3.795,-3.8018,-3.8111,-3.8143,-3.8162,-3.8274,-3.8263,-3.8254,-3.8223,-3.83,-3.8337,-3.8352,-3.8164,-3.8163,-3.8163,-3.8162,0,0,-3.7368,-3.7495,-3.7516,-3.7563,-3.766,-3.7727,-3.7814,-3.7906,-3.7952,-3.8026,-3.8099,-3.8217,-3.8211,-3.8264,-3.829,-3.8346,-3.8431,-3.8331,-3.8333,-3.8346,-3.8558,-3.8562,-3.8578,-3.8436,-3.8439,-3.8442,-3.855,0,-3.7468,-3.7625,-3.7665,-3.7798,-3.7877,-3.7898,-3.7975,-3.8042,-3.8084,-3.8157,-3.8202,-3.8285,-3.827,-3.8303,-3.8359,-3.8409,-3.8474,-3.8402,-3.8504,-3.8507,-3.8482,-3.8598,-3.8603,-3.8702,-3.8565,-3.8568,-3.857,0,-3.7606,-3.7684,-3.7825,-3.7913,-3.7947,-3.8015,-3.8103,-3.8173,-3.825,-3.8276,-3.8337,-3.8358,-3.845,-3.8416,-3.8542,-3.8492,-3.8536,-3.8568,-3.8572,-3.8582,-3.8542,-3.8609,-3.8735,-3.8749,-3.8593,-3.8591,-3.8589,0,-3.7657,-3.7797,-3.7899,-3.794,-3.8045,-3.8092,-3.8138,-3.8213,-3.8266,-3.8343,-3.8378,-3.8464,-3.8511,-3.8577,-3.862,-3.8592,-3.8743,-3.8712,-3.8766,-3.8765,-3.8796,-3.8793,-3.8928,-3.8827,-3.8827,-3.8827,-3.8826,0,-3.7764,-3.7849,-3.7924,-3.7987,-3.8083,-3.8129,-3.8223,-3.8269,-3.8336,-3.8408,-3.8432,-3.8499,-3.8553,-3.8627,-3.8662,-3.8761,-3.8782,-3.8806,-3.8814,-3.8803,-3.88,-3.8831,-3.8825,-3.8831,-3.883,-3.8829,-3.8828,0,-3.7836,-3.7889,-3.8003,-3.8094,-3.8119,-3.8185,-3.8263,-3.8325,-3.8368,-3.8459,-3.8483,-3.8551,-3.8639,-3.869,-3.8802,-3.8825,-3.8935,-3.894,-3.8909,-3.8912,-3.8963,-3.8957,-3.9122,-3.9146,-3.903,-3.9031,-3.9032,0,-3.79,-3.7966,-3.8065,-3.8116,-3.8163,-3.8243,-3.8298,-3.8346,-3.8402,-3.8496,-3.8547,-3.8637,-3.8712,-3.8853,-3.8911,-3.8997,-3.9004,-3.9056,-3.9016,-3.9004,-3.9003,-3.8998,-3.9004,-3.9062,-3.9063,-3.9064,-3.9064,0,-3.8008,-3.8032,-3.811,-3.8198,-3.8263,-3.8334,-3.8405,-3.8445,-3.8505,-3.8567,-3.8659,-3.8717,-3.8832,-3.8921,-3.9012,-3.9058,-3.9071,-3.9077,-3.9094,-3.9082,-3.9061,-3.9072,-3.8926,-3.9072,-3.9071,-3.9071,-3.907,-3.907,-3.8078,-3.8137,-3.8217,-3.8303,-3.8362,-3.8428,-3.8491,-3.8543,-3.862,-3.8718,-3.8742,-3.8838,-3.8915,-3.9038,-3.9087,-3.9163,-3.9153,-3.9178,-3.9184,-3.9189,-3.919,-3.905,-3.918,-3.918,-3.9179,-3.9179,-3.9179,0,-3.8186,-3.8238,-3.8318,-3.8417,-3.8485,-3.8493,-3.8572,-3.8628,-3.8713,-3.8784,-3.8858,-3.8963,-3.905,-3.9117,-3.9206,-3.9254,-3.9262,-3.9275,-3.9271,-3.9282,-3.9194,-3.917,-3.9267,-3.9267,-3.9267,-3.9267,-3.9267,-3.9267,-3.825,-3.8352,-3.8385,-3.8516,-3.8568,-3.8663,-3.8708,-3.8769,-3.8826,-3.8943,-3.9016,-3.9059,-3.9128,-3.9223,-3.9303,-3.932,-3.9351,-3.9364,-3.9381,-3.9297,-3.9288,-3.9279,-3.9256,-3.937,-3.937,-3.9463,-3.9464,-3.9464]},{"header":{"parameterUnit":"m.s-1","parameterCategory":1,"la1":30.2991,"la2":30.254,"lo1":-89.0895,"lo2":-89.0444,"dy":0.0017,"dx":0.0017,"nx":28,"ny":28,"refTime":"2025-04-17T09:00:00:Z","depth":0,"parameterNumber":3,"parameterNumberName":"V-component_of_WINDS"},"data":[0,0,0,0,0,0,0,0,0,0,0,0,0,0,0,0,0,0,0,0,0,0,0,0,0,0,0,0,0,0,0,0,0,0,0,0,0,0,0,0,0,0,0,0,0,0,0,0,0,0,0,0,0,0,0,0,0,0,3.8941,3.8941,0,3.894,3.894,3.894,3.8899,3.8897,3.8896,3.8895,3.8895,3.8896,3.8897,0,0,0,0,0,0,0,0,0,0,0,0,0,3.8908,3.8909,3.8941,3.8941,3.8941,3.894,3.894,3.894,3.8899,3.8897,3.8896,3.8895,3.8895,3.8896,3.8897,0,0,0,0,0,0,0,0,0,0,0,0,0,3.8917,3.891,3.8941,3.892,3.8918,3.894,3.894,3.894,3.8899,3.8897,3.8896,3.8894,3.8894,3.8896,3.8897,3.894,0,0,3.8902,3.8903,0,0,0,0,0,0,0,0,3.8916,3.8918,3.8923,3.8922,3.8919,3.8918,3.8929,3.894,3.8899,3.8906,3.8895,3.8893,3.8904,3.8905,3.8908,3.894,3.894,3.8902,3.8903,3.8904,3.8904,0,0,0,0,0,0,0,3.8916,3.8918,3.8941,3.8923,3.8921,3.8912,3.8911,3.8931,3.8914,3.8906,3.8903,3.8903,3.8903,3.8907,3.8908,3.894,3.8902,3.8904,3.8904,3.8905,3.9008,3.9009,0,0,0,0,0,0,3.8918,3.8918,3.8941,3.8941,3.8914,3.8913,3.8913,3.892,3.8914,3.8912,3.8904,3.8901,3.8905,3.8906,3.8908,3.8958,3.8904,3.8905,3.8906,3.9006,3.9008,3.901,0,0,0,0,0,0,3.8917,3.892,3.8941,3.8928,3.893,3.8916,3.8924,3.8921,3.8925,3.8913,3.891,3.8911,3.8904,3.8906,3.8932,3.8957,3.8906,3.8907,3.9004,3.9007,3.9009,3.9057,0,0,0,0,0,0,3.8917,3.892,3.8935,3.8929,3.8931,3.8965,3.8926,3.8922,3.8927,3.8923,3.8919,3.8917,3.8903,3.893,3.8934,3.8958,3.8908,3.9001,3.9005,3.9008,3.9053,3.9061,3.9068,0,0,0,0,0,3.8916,3.8949,3.8936,3.8939,3.8949,3.8966,3.8967,3.895,3.893,3.8945,3.8938,3.8917,3.8954,3.8933,3.8937,3.8962,3.9,3.9004,3.9008,3.905,3.906,3.9068,0,0,0,0,0,0,3.8958,3.8947,3.8934,3.8965,3.8967,3.8959,3.8978,3.8961,3.8968,3.8964,3.8943,3.8943,3.8973,3.897,3.8948,3.9004,3.8973,3.8978,3.9004,3.9013,3.902,3.902,3.891,0,0,0,0,0,3.8971,3.8985,3.8975,3.9004,3.9006,3.8992,3.8999,3.8986,3.8987,3.8987,3.8982,3.8984,3.8996,3.9005,3.9015,3.9053,3.9052,3.9073,3.908,3.9086,3.909,3.9112,3.9121,3.9023,3.9023,3.9023,0,0,3.8998,3.8994,3.9004,3.9013,3.9013,3.9028,3.8993,3.9011,3.9022,3.899,3.9015,3.9012,3.9013,3.9046,3.906,3.9044,3.9117,3.9091,3.9096,3.9097,3.9117,3.9126,3.9134,3.9026,3.9026,3.9025,0,0,3.9055,3.9054,3.9078,3.9079,3.908,3.9071,3.9077,3.9072,3.9069,3.9094,3.907,3.9084,3.9106,3.9108,3.9112,3.9173,3.9154,3.9177,3.9215,3.9236,3.9244,3.9251,3.9273,3.9282,3.9182,3.9182,3.9182,0,3.9089,3.9111,3.9093,3.9113,3.9118,3.9091,3.9116,3.9118,3.9122,3.9127,3.9109,3.9137,3.9136,3.9169,3.9185,3.9189,3.9196,3.9177,3.9244,3.9251,3.9257,3.9278,3.9287,3.9185,3.9185,3.9184,3.9184,0,3.9153,3.9169,3.9189,3.9194,3.9202,3.9224,3.9211,3.9221,3.9208,3.9202,3.9229,3.9227,3.9237,3.9244,3.9232,3.9277,3.9268,3.9248,3.9217,3.9269,3.9289,3.9297,3.9189,3.9188,3.9187,3.9186,0,0,3.9234,3.9231,3.9239,3.9241,3.9241,3.9254,3.9276,3.9287,3.9296,3.9301,3.932,3.934,3.9322,3.9327,3.9314,3.9333,3.9383,3.9311,3.9311,3.9325,3.9435,3.945,3.9459,3.9372,3.9373,3.9374,3.9435,0,3.929,3.9327,3.9313,3.9352,3.9367,3.9343,3.9363,3.9365,3.936,3.9374,3.9368,3.9383,3.9358,3.9361,3.9379,3.9374,3.9405,3.9369,3.9389,3.939,3.9389,3.9469,3.9484,3.9542,3.9442,3.9444,3.9445,0,3.9359,3.9367,3.9408,3.9407,3.9413,3.943,3.944,3.9453,3.9456,3.9452,3.9458,3.9443,3.9466,3.9436,3.9468,3.9444,3.9452,3.9451,3.9453,3.9454,3.942,3.9472,3.9559,3.9568,3.9456,3.9456,3.9455,0,3.9415,3.9436,3.9463,3.9467,3.9466,3.948,3.948,3.9482,3.949,3.9499,3.9504,3.9516,3.9522,3.9532,3.952,3.9499,3.9555,3.9524,3.9552,3.9553,3.9564,3.9563,3.9654,3.957,3.957,3.957,3.9569,0,3.9478,3.9504,3.9489,3.9506,3.9535,3.9519,3.9549,3.9546,3.9549,3.9566,3.9545,3.9562,3.9546,3.9561,3.9553,3.9582,3.9585,3.9582,3.9579,3.9584,3.9584,3.9588,3.9584,3.9572,3.9571,3.9571,3.9571,0,3.9545,3.9536,3.9564,3.9562,3.9562,3.9584,3.9582,3.9598,3.9593,3.9615,3.9619,3.9611,3.9628,3.9618,3.9636,3.963,3.9668,3.966,3.9667,3.9664,3.9694,3.9691,3.9789,3.9802,3.971,3.9711,3.9712,0,3.9585,3.9605,3.9606,3.9616,3.9618,3.9634,3.9642,3.9629,3.9639,3.9646,3.9661,3.9677,3.9689,3.9718,3.9714,3.9728,3.972,3.9753,3.9721,3.9726,3.9721,3.972,3.9722,3.9759,3.976,3.9761,3.9762,0,3.9659,3.9654,3.9667,3.9679,3.969,3.9699,3.9706,3.9715,3.9702,3.9715,3.9732,3.9742,3.9761,3.9777,3.9789,3.9791,3.9775,3.9772,3.978,3.9784,3.9787,3.9787,3.9684,3.977,3.9769,3.9768,3.9768,3.9768,3.9714,3.9731,3.9734,3.975,3.9755,3.9762,3.9778,3.9775,3.979,3.9804,3.9796,3.9817,3.9822,3.9837,3.9841,3.9858,3.9845,3.9855,3.9858,3.9861,3.9865,3.9785,3.986,3.986,3.986,3.986,3.986,0,3.9787,3.9788,3.9803,3.9814,3.9827,3.9812,3.982,3.9832,3.9851,3.9857,3.9869,3.9891,3.9907,3.9906,3.9921,3.9935,3.9928,3.994,3.9938,3.9939,3.9876,3.9868,3.9945,3.9945,3.9945,3.9945,3.9945,3.9945,3.9826,3.9854,3.985,3.9881,3.9883,3.9903,3.991,3.9917,3.9922,3.9947,3.9961,3.996,3.9964,3.998,3.9995,3.9994,4.0,4.0015,4.0011,3.9952,3.9943,3.9935,3.9928,4.0016,4.0016,4.0073,4.0074,4.0074]}]]